BMCB-6 Weather Reports


Display with metric or nautical units.
time (UTC)temp
F
wind
direction
speed
MPH
gust
MPH
rain 1hr
in
rain 24hr
in
rain mn
in
humidity
%
barometer
mb
20260507080007 48 0 0.0 0.0 0.00 0.00 0.00 92 1017.5
20260507075007 47 0 0.0 0.0 0.00 0.00 0.00 92 1017.5
20260507074008 47 0 0.0 0.0 0.00 0.00 0.00 92 1017.5
20260507073007 47 0 0.0 0.0 0.00 0.00 0.00 93 1017.4
20260507072007 46 0 0.0 0.0 0.00 0.00 0.00 93 1017.4
20260507071007 46 0 0.0 0.0 0.00 0.00 0.00 95 1017.4
20260507070010 46 0 0.0 0.0 0.00 0.00 0.00 95 1017.3
20260507064007 45 0 0.0 0.0 0.00 0.00 0.00 98 1017.2
20260507062007 44 0 0.0 0.0 0.00 0.00 0.00 10 1017.1
20260507061007 44 0 0.0 0.0 0.00 0.00 0.00 10 1017.0
20260507054007 44 0 0.0 0.0 0.00 0.00 0.00 10 1016.7
20260507052007 44 0 0.0 0.0 0.00 0.00 0.00 10 1016.6
20260507051010 44 0 0.0 0.0 0.00 0.00 0.00 10 1016.4
20260507050006 43 0 0.0 0.0 0.00 0.00 0.00 10 1016.3
20260507044007 43 0 0.0 0.0 0.00 0.00 0.00 10 1016.1
20260507041007 43 0 0.0 0.0 0.00 0.00 0.00 10 1016.0
20260507040007 43 0 0.0 0.0 0.00 0.00 0.00 10 1015.9
20260507035007 43 0 0.0 0.0 0.00 0.00 0.00 10 1015.9
20260507034007 43 0 0.0 0.0 0.00 0.00 0.00 10 1015.8
20260507033007 43 0 0.0 0.0 0.00 0.00 0.00 10 1015.7
20260507032007 43 0 0.0 0.0 0.00 0.00 0.00 10 1015.7
20260507031007 43 0 0.0 0.0 0.00 0.00 0.00 10 1015.6
20260507025007 43 0 0.0 0.0 0.00 0.00 0.00 10 1015.5
20260507024007 43 0 0.0 0.0 0.00 0.00 0.00 10 1015.5
20260507023007 43 0 0.0 0.0 0.00 0.00 0.00 10 1015.5
20260507022007 43 0 0.0 0.0 0.00 0.00 0.00 10 1015.4
20260507021006 43 0 0.0 0.0 0.00 0.00 0.00 10 1015.3
20260507020006 43 0 0.0 0.0 0.00 0.00 0.00 10 1015.2
20260507015007 43 0 0.0 0.0 0.00 0.00 0.00 10 1015.2
20260507014007 43 0 0.0 0.0 0.00 0.00 0.00 10 1015.1
20260507013007 43 0 0.0 0.0 0.00 0.00 0.00 10 1015.1
20260507012007 43 0 0.0 0.0 0.00 0.00 0.00 10 1015.1
20260507011007 43 0 0.0 0.0 0.00 0.00 0.00 10 1015.1
20260507010006 43 0 0.0 0.0 0.00 0.00 0.00 10 1015.0
20260507005006 43 0 0.0 0.0 0.00 0.00 0.00 10 1015.1
20260507004008 43 0 0.0 0.0 0.00 0.00 0.00 10 1015.0
20260507003008 43 0 0.0 0.0 0.00 0.00 0.00 10 1015.0
20260507000007 43 0 0.0 0.0 0.00 0.00 0.00 10 1014.9
20260506235008 43 0 0.0 0.0 0.00 0.00 0.00 10 1014.9
20260506234008 43 0 0.0 0.0 0.00 0.00 0.00 10 1014.9
20260506233008 43 0 0.0 0.0 0.00 0.00 0.00 99 1014.9
20260506232008 43 0 0.0 0.0 0.00 0.00 0.00 99 1014.8
20260506231007 42 0 0.0 0.0 0.00 0.00 0.00 99 1014.8
20260506230008 42 0 0.0 0.0 0.00 0.00 0.00 99 1014.7
20260506225008 42 0 0.0 0.0 0.00 0.00 0.00 99 1014.6
20260506224007 43 0 0.0 0.0 0.00 0.00 0.00 99 1014.5
20260506222009 43 0 0.0 0.0 0.00 0.00 0.00 99 1014.4
20260506221008 43 0 0.0 0.0 0.00 0.00 0.00 99 1014.3
20260506220008 44 0 0.0 0.0 0.00 0.00 0.00 99 1014.1
20260506214008 44 0 0.0 0.0 0.00 0.00 0.00 99 1014.0
20260506213008 45 0 0.0 0.0 0.00 0.00 0.00 99 1013.9
20260506212008 45 0 0.0 0.0 0.00 0.00 0.00 99 1013.8
20260506210007 46 0 0.0 0.0 0.00 0.00 0.00 99 1013.6
20260506205008 46 0 0.0 0.0 0.00 0.00 0.00 99 1013.4
20260506204007 46 0 0.0 0.0 0.00 0.00 0.00 99 1013.3
20260506203008 46 0 0.0 0.0 0.00 0.00 0.00 99 1013.2
20260506202007 47 0 0.0 0.0 0.00 0.00 0.00 99 1013.1
20260506201008 47 0 0.0 0.0 0.00 0.00 0.00 99 1012.9
20260506200008 48 0 0.0 0.0 0.00 0.00 0.00 99 1012.8
20260506195008 48 0 0.0 0.0 0.00 0.00 0.00 99 1012.7
20260506194008 48 0 0.0 0.0 0.00 0.00 0.00 99 1012.6
20260506193008 48 0 0.0 0.0 0.00 0.00 0.00 98 1012.6
20260506192008 48 0 0.0 0.0 0.00 0.00 0.00 98 1012.5
20260506191008 48 0 0.0 0.0 0.00 0.00 0.00 98 1012.4
20260506190007 48 0 0.0 0.0 0.00 0.00 0.00 97 1012.4
20260506185008 48 0 0.0 0.0 0.00 0.00 0.00 97 1012.4
20260506184007 48 0 0.0 0.0 0.00 0.00 0.00 98 1012.3
20260506183008 48 0 0.0 0.0 0.00 0.00 0.00 98 1012.2
20260506182008 49 0 0.0 0.0 0.00 0.00 0.00 98 1012.0
20260506175008 49 0 0.0 0.0 0.00 0.00 0.00 97 1011.6
20260506174008 49 0 0.0 0.0 0.00 0.00 0.00 97 1011.6
20260506173007 49 0 0.0 0.0 0.00 0.00 0.00 97 1011.4
20260506171007 49 0 0.0 0.0 0.00 0.00 0.00 97 1011.3
20260506165007 49 0 0.0 0.0 0.00 0.01 0.00 98 1011.2
20260506162007 49 0 0.0 0.0 0.00 0.01 0.00 97 1011.3
20260506161007 49 0 0.0 0.0 0.00 0.01 0.00 97 1011.3
20260506154008 48 0 0.0 0.0 0.00 0.01 0.00 98 1011.3
20260506153007 48 0 0.0 0.0 0.00 0.01 0.00 98 1011.3
20260506152007 48 0 0.0 0.0 0.00 0.01 0.00 98 1011.2
20260506151008 48 0 0.0 0.0 0.00 0.01 0.00 98 1011.2
20260506150007 48 0 0.0 0.0 0.00 0.01 0.00 98 1011.2
20260506145008 48 0 0.0 0.0 0.00 0.01 0.00 97 1011.2
20260506144007 48 0 0.0 0.0 0.00 0.01 0.00 96 1011.3
20260506142008 49 0 0.0 0.0 0.00 0.01 0.00 96 1011.3
20260506141007 49 0 0.0 0.0 0.00 0.01 0.00 96 1011.3
20260506140007 48 0 0.0 0.0 0.00 0.01 0.00 96 1011.2
20260506135007 49 0 0.0 0.0 0.00 0.01 0.00 96 1011.2
20260506134007 49 0 0.0 0.0 0.00 0.01 0.00 96 1011.1
20260506132007 48 0 0.0 0.0 0.00 0.01 0.00 10 1011.1
20260506131007 47 0 0.0 0.0 0.00 0.01 0.00 10 1011.1
20260506130007 47 0 0.0 0.0 0.00 0.01 0.00 10 1011.0
20260506125007 47 0 0.0 0.0 0.00 0.01 0.00 10 1011.0
20260506124007 47 0 0.0 0.0 0.00 0.01 0.00 10 1010.9
20260506122007 46 0 0.0 0.0 0.00 0.01 0.00 10 1010.8
20260506121007 46 0 0.0 0.0 0.00 0.01 0.00 10 1010.7
20260506120006 47 0 0.0 0.0 0.00 0.01 0.00 10 1010.6
20260506114007 47 0 0.0 0.0 0.00 0.01 0.00 10 1010.4
20260506113007 46 0 0.0 0.0 0.00 0.01 0.00 10 1010.4
20260506112008 46 0 0.0 0.0 0.00 0.01 0.00 10 1010.3
20260506111007 46 0 0.0 0.0 0.00 0.01 0.00 10 1010.3
20260506110007 46 0 0.0 0.0 0.00 0.01 0.00 10 1010.3
20260506105007 46 0 0.0 0.0 0.00 0.01 0.00 10 1010.3
20260506104007 46 0 0.0 0.0 0.00 0.01 0.00 10 1010.2
20260506101007 46 0 0.0 0.0 0.00 0.01 0.00 10 1010.2
20260506100007 46 0 0.0 0.0 0.00 0.01 0.00 10 1010.2
20260506093007 45 0 0.0 0.0 0.00 0.01 0.00 10 1010.1
20260506091007 45 0 0.0 0.0 0.00 0.01 0.00 10 1010.0
20260506084007 45 0 0.0 0.0 0.00 0.01 0.00 10 1009.8
20260506083006 44 0 0.0 0.0 0.00 0.01 0.00 10 1009.8
20260506082007 44 0 0.0 0.0 0.00 0.01 0.00 10 1009.6
20260506081007 44 0 0.0 0.0 0.00 0.01 0.00 10 1009.7